This demonstration page uses our WeatherBlox Daily Observations layout. Learn more.

Left ArrowRight Arrow

44.8408, -93.29828

Hourly Observations for May 25, 2022

Temp ( °F °C ) Dew Point ( °F °C ) Humidity (%) Winds ( mph kmh ) Pressure ( in mb ) Visibility ( mi km ) Precip ( " mm )
12:53 am 00:53 Cloudy with Light Rain 56 13.3 48 8.9 75 75 S 10 17 30.13 1020 8 13 0.00 0.00
1:53 am 01:53 Cloudy with Light Rain 53 11.7 50 10 89 89 SE 6 9 30.13 1020 6 10 0.05 1.27
2:37 am 02:37 Cloudy with Light Rain 53 11.7 49 9.4 86 86 E 10 17 30.12 1020 7 11 0.04 1.02
2:53 am 02:53 Cloudy with Light Rain 52 11.1 48 8.9 86 86 ESE 17 28 30.13 1020 7 11 0.05 1.27
2:58 am 02:58 Cloudy with Light Rain 51 10.6 47 8.3 86 86 ESE 17 28 30.14 1021 7 11 0.00 0.00
3:53 am 03:53 Cloudy with Light Rain 51 10.6 47 8.3 86 86 ENE 9 15 30.11 1020 6 10 0.07 1.78
4:39 am 04:39 Cloudy with Light Rain 50 10 47 8.3 89 89 E 10 17 30.10 1019 6 10 0.06 1.52
4:53 am 04:53 Cloudy with Light Rain 50 10 46 7.8 86 86 E 12 19 30.09 1019 7 11 0.07 1.78
5:09 am 05:09 Cloudy with Light Rain 50 10 46 7.8 86 86 ENE 12 19 30.09 1019 7 11 0.02 0.51
5:22 am 05:22 Cloudy with Light Rain 50 10 46 7.8 86 86 ENE 12 19 30.08 1019 6 10 0.03 0.76
5:45 am 05:45 Cloudy with Light Rain 50 10 46 7.8 86 86 ENE 14 22 30.07 1018 7 11 0.05 1.27
5:53 am 05:53 Cloudy with Light Rain 49 9.4 46 7.8 90 90 ENE 15 24 30.06 1018 6 10 0.05 1.27
6:03 am 06:03 Cloudy with Light Rain 49 9.4 46 7.8 90 90 ENE 12 19 30.08 1019 7 11 0.01 0.25
6:53 am 06:53 Cloudy with Light Rain 49 9.4 46 7.8 90 90 ENE 13 20 30.07 1018 7 11 0.05 1.27
7:08 am 07:08 Cloudy with Light Rain 49 9.4 46 7.8 90 90 ENE 13 20 30.08 1019 7 11 0.01 0.25
7:19 am 07:19 Cloudy with Light Rain 49 9.4 47 8.3 93 93 ENE 13 20 30.07 1018 6 10 0.02 0.51
7:28 am 07:28 Cloudy with Light Rain 50 10 47 8.3 89 89 ENE 10 17 30.07 1018 6 10 0.03 0.76
7:39 am 07:39 Cloudy with Light Rain 50 10 47 8.3 89 89 E 14 22 30.07 1018 6 10 0.03 0.76
7:53 am 07:53 Cloudy with Light Rain 50 10 47 8.3 89 89 ENE 13 20 30.06 1018 6 10 0.04 1.02
8:06 am 08:06 Cloudy with Light Rain 50 10 47 8.3 89 89 ENE 13 20 30.07 1018 8 13 0.00 0.00
8:18 am 08:18 Cloudy with Light Rain 50 10 46 7.8 86 86 ENE 14 22 30.07 1018 7 11 0.00 0.00
8:53 am 08:53 Cloudy with Light Rain 50 10 47 8.3 89 89 ENE 13 20 30.06 1018 6 10 0.03 0.76
9:07 am 09:07 Cloudy with Light Rain 50 10 47 8.3 89 89 ENE 14 22 30.05 1018 5 8 0.00 0.00
9:41 am 09:41 Cloudy with Light Rain 50 10 47 8.3 89 89 ENE 18 30 30.03 1017 5 8 0.05 1.27
9:53 am 09:53 Cloudy with Light Rain 50 10 47 8.3 89 89 ENE 16 26 30.02 1017 5 8 0.06 1.52
10:02 am 10:02 Cloudy with Light Rain 50 10 47 8.3 89 89 ENE 16 26 30.02 1017 5 8 0.00 0.00
10:53 am 10:53 Cloudy with Light Rain 50 10 47 8.3 89 89 ENE 16 26 29.98 1015 8 13 0.03 0.76
11:16 am 11:16 Cloudy with Light Rain 51 10.6 47 8.3 86 86 ENE 16 26 29.99 1016 5 8 0.01 0.25
11:29 am 11:29 Cloudy with Light Rain 51 10.6 48 8.9 89 89 ENE 18 30 29.98 1015 7 11 0.02 0.51
11:36 am 11:36 Cloudy with Light Rain 51 10.6 48 8.9 89 89 ENE 16 26 29.98 1015 8 13 0.02 0.51
11:53 am 11:53 Cloudy with Light Rain 51 10.6 47 8.3 86 86 ENE 15 24 29.96 1015 10 16 0.02 0.51
12:53 pm 12:53 Cloudy with Light Rain 51 10.6 48 8.9 89 89 ENE 16 26 29.94 1014 10 16 0.00 0.00
1:53 pm 13:53 Cloudy 52 11.1 49 9.4 89 89 ENE 14 22 29.92 1013 10 16 0.01 0.25
2:05 pm 14:05 Cloudy 53 11.7 48 8.9 83 83 ENE 12 19 29.91 1013 10 16 0.00 0.00
2:25 pm 14:25 Cloudy 53 11.7 48 8.9 83 83 ENE 13 20 29.90 1013 10 16 0.00 0.00
2:53 pm 14:53 Cloudy 53 11.7 49 9.4 86 86 NE 12 19 29.91 1013 10 16 0.00 0.00
3:40 pm 15:40 Cloudy with Mist and Fog 52 11.1 49 9.4 89 89 VRB 7 11 29.89 1012 3 5 0.00 0.00
3:53 pm 15:53 Cloudy with Mist and Fog 52 11.1 50 10 93 93 ENE 8 13 29.89 1012 3 4 0.00 0.00
4:14 pm 16:14 Cloudy with Mist and Fog 52 11.1 49 9.4 89 89 NE 9 15 29.88 1012 3 4 0.00 0.00
4:21 pm 16:21 Cloudy with Mist and Fog 52 11.1 49 9.4 89 89 NE 9 15 29.88 1012 3 5 0.00 0.00
4:53 pm 16:53 Cloudy with Mist and Fog 52 11.1 49 9.4 89 89 NE 10 17 29.88 1012 6 10 0.00 0.00
5:41 pm 17:41 Cloudy with Mist and Fog 51 10.6 49 9.4 92 92 NNE 10 17 29.88 1012 3 4 0.00 0.00
5:53 pm 17:53 Cloudy with Mist and Fog 51 10.6 49 9.4 92 92 NNE 12 19 29.88 1012 2 3 0.00 0.00
6:19 pm 18:19 Cloudy with Mist and Fog 51 10.6 49 9.4 92 92 NNE 9 15 29.88 1012 2 3 0.01 0.25
6:53 pm 18:53 Cloudy with Mist and Fog 51 10.6 49 9.4 92 92 N 10 17 29.88 1012 3 5 0.01 0.25
7:53 pm 19:53 Cloudy with Drizzle 51 10.6 48 8.9 89 89 NNE 16 26 29.86 1011 10 16 0.00 0.00
8:28 pm 20:28 Cloudy with Drizzle 50 10 48 8.9 93 93 NNE 14 22 29.86 1011 10 16 0.00 0.00
8:50 pm 20:50 Cloudy with Drizzle 50 10 46 8 88 88 NNE 13 20 29.86 1011 10 16 0.00 0.00
8:53 pm 20:53 Cloudy with Drizzle 50 10 47 8.3 89 89 NNE 12 19 29.86 1011 10 16 0.00 0.00
9:43 pm 21:43 Cloudy with Light Rain 50 10 47 8.3 89 89 N 13 20 29.86 1011 10 16 0.00 0.00
9:53 pm 21:53 Cloudy with Light Rain 49 9.4 47 8.3 93 93 N 12 19 29.85 1011 10 16 0.00 0.00
10:18 pm 22:18 Cloudy with Light Rain 49 9.4 46 7.8 90 90 N 14 22 29.85 1011 10 16 0.01 0.25
10:53 pm 22:53 Cloudy with Light Rain 48 8.9 45 7.2 89 89 N 10 17 29.85 1011 10 16 0.01 0.25
11:11 pm 23:11 Cloudy with Light Rain 48 8.9 45 7.2 89 89 N 8 13 29.85 1011 10 16 0.00 0.00
11:33 pm 23:33 Cloudy with Light Rain 48 8.9 45 7.2 89 89 N 7 11 29.86 1011 10 16 0.01 0.25
11:53 pm 23:53 Cloudy with Light Rain 48 8.9 45 7.2 89 89 N 7 11 29.85 1011 10 16 0.01 0.25

Powered by AerisWeather